Total_Precipitation_Accumulation
0.00 0.00 0.00 0.00 0.00 0.00 0.00 0.00 0.00 0.00 0.00 0.00 0.00 0.00 0.00 0.00 0.00 0.00 0.00 0.00 0.00 0.00 0.00 0.03 0.16 0.24 0.37 0.42 0.13 0.09 0.03 0.01 0.01 0.02 0.00 0.00 0.00 0.00 0.00 0.00 0.01 0.02 0.00 0.03 0.11 0.29 0.51 0.10 0.00
0.00 0.00 0.00 0.00 0.00 0.00 0.00 0.00 0.00 0.00 0.00 0.00 0.00 0.00 0.00 0.00 0.00 0.00 0.00 0.00 0.00 0.00 0.00 0.01 0.07 0.21 0.33 0.49 0.51 0.19 0.09 0.02 0.03 0.03 0.00 0.00 0.00 0.00 0.00 0.00 0.03 0.01 0.03 0.12 0.19 0.42 0.15 0.00 0.00
0.00 0.00 0.00 0.00 0.00 0.00 0.00 0.00 0.00 0.00 0.00 0.00 0.00 0.00 0.00 0.00 0.00 0.00 0.00 0.00 0.00 0.00 0.00 0.02 0.06 0.11 0.31 0.44 0.65 0.52 0.31 0.11 0.04 0.03 0.00 0.00 0.00 0.00 0.00 0.01 0.05 0.02 0.13 0.09 0.17 0.22 0.02 0.00 0.00
0.00 0.00 0.00 0.00 0.00 0.00 0.00 0.00 0.00 0.00 0.00 0.00 0.00 0.00 0.00 0.00 0.00 0.00 0.00 0.00 0.00 0.00 0.00 0.02 0.07 0.10 0.19 0.45 0.56 0.66 0.57 0.40 0.28 0.06 0.00 0.00 0.00 0.00 0.01 0.04 0.04 0.02 0.13 0.06 0.14 0.04 0.00 0.00 0.00
0.00 0.00 0.00 0.00 0.00 0.00 0.00 0.00 0.00 0.00 0.00 0.00 0.00 0.00 0.00 0.00 0.00 0.00 0.00 0.00 0.00 0.00 0.00 0.00 0.04 0.16 0.22 0.41 0.44 0.56 0.62 0.58 0.49 0.33 0.07 0.00 0.00 0.00 0.02 0.03 0.02 0.03 0.11 0.04 0.09 0.01 0.00 0.00 0.00
0.00 0.00 0.00 0.00 0.00 0.00 0.00 0.00 0.00 0.00 0.00 0.00 0.00 0.00 0.00 0.00 0.00 0.00 0.00 0.00 0.00 0.00 0.00 0.00 0.01 0.07 0.19 0.28 0.38 0.54 0.62 0.59 0.54 0.45 0.41 0.16 0.03 0.01 0.02 0.03 0.02 0.03 0.04 0.02 0.03 0.00 0.00 0.00 0.00
0.00 0.00 0.00 0.00 0.00 0.00 0.00 0.00 0.00 0.00 0.00 0.00 0.00 0.00 0.00 0.00 0.00 0.00 0.00 0.00 0.00 0.00 0.00 0.00 0.00 0.02 0.05 0.15 0.30 0.43 0.57 0.53 0.54 0.49 0.43 0.36 0.17 0.08 0.07 0.02 0.02 0.01 0.04 0.01 0.01 0.00 0.00 0.00 0.00
0.00 0.00 0.00 0.00 0.00 0.00 0.00 0.00 0.00 0.00 0.00 0.00 0.00 0.00 0.00 0.00 0.00 0.00 0.00 0.00 0.00 0.00 0.00 0.00 0.00 0.00 0.02 0.16 0.12 0.30 0.43 0.35 0.30 0.24 0.22 0.15 0.11 0.12 0.11 0.02 0.01 0.02 0.04 0.03 0.00 0.00 0.00 0.00 0.00
0.00 0.00 0.00 0.00 0.00 0.00 0.00 0.00 0.00 0.00 0.00 0.00 0.00 0.00 0.00 0.00 0.00 0.00 0.00 0.00 0.00 0.00 0.00 0.00 0.00 0.00 0.01 0.11 0.21 0.21 0.27 0.46 0.33 0.21 0.17 0.19 0.10 0.04 0.07 0.02 0.01 0.01 0.01 0.02 0.01 0.00 0.00 0.00 0.00
0.00 0.00 0.00 0.00 0.00 0.00 0.00 0.00 0.00 0.00 0.00 0.00 0.00 0.00 0.00 0.00 0.00 0.00 0.00 0.00 0.00 0.00 0.00 0.00 0.00 0.00 0.00 0.02 0.20 0.33 0.42 0.36 0.35 0.21 0.07 0.09 0.16 0.11 0.05 0.12 0.07 0.01 0.01 0.00 0.01 0.01 0.00 0.00 0.00
0.00 0.00 0.00 0.00 0.00 0.00 0.00 0.00 0.00 0.00 0.00 0.00 0.00 0.00 0.00 0.00 0.00 0.00 0.00 0.00 0.00 0.00 0.00 0.00 0.00 0.00 0.00 0.01 0.11 0.24 0.37 0.38 0.33 0.28 0.17 0.09 0.16 0.15 0.08 0.04 0.04 0.04 0.02 0.01 0.00 0.01 0.00 0.00 0.00
0.00 0.00 0.00 0.00 0.00 0.00 0.00 0.00 0.00 0.00 0.00 0.00 0.00 0.00 0.00 0.00 0.00 0.00 0.00 0.00 0.00 0.00 0.00 0.00 0.00 0.00 0.00 0.01 0.02 0.11 0.23 0.34 0.29 0.23 0.25 0.15 0.16 0.18 0.09 0.04 0.01 0.01 0.00 0.00 0.00 0.00 0.00 0.00 0.00
0.00 0.00 0.00 0.00 0.00 0.00 0.00 0.00 0.00 0.00 0.00 0.00 0.00 0.00 0.00 0.00 0.00 0.00 0.00 0.00 0.00 0.00 0.00 0.00 0.00 0.00 0.00 0.00 0.01 0.04 0.13 0.22 0.21 0.37 0.29 0.18 0.13 0.13 0.10 0.07 0.05 0.01 0.01 0.00 0.00 0.00 0.00 0.00 0.00
0.00 0.00 0.00 0.00 0.00 0.00 0.00 0.00 0.00 0.00 0.00 0.00 0.00 0.00 0.00 0.00 0.00 0.00 0.00 0.00 0.00 0.00 0.00 0.00 0.00 0.00 0.00 0.00 0.00 0.02 0.07 0.15 0.32 0.30 0.27 0.21 0.11 0.10 0.12 0.12 0.07 0.05 0.05 0.04 0.01 0.00 0.00 0.00 0.00
0.00 0.00 0.00 0.00 0.00 0.00 0.00 0.00 0.00 0.00 0.00 0.00 0.00 0.00 0.00 0.00 0.00 0.00 0.00 0.00 0.00 0.00 0.00 0.00 0.00 0.00 0.00 0.00 0.00 0.02 0.05 0.12 0.21 0.14 0.23 0.34 0.17 0.11 0.10 0.07 0.07 0.10 0.11 0.10 0.04 0.01 0.00 0.00 0.00
0.00 0.00 0.01 0.00 0.00 0.00 0.00 0.00 0.00 0.00 0.00 0.00 0.00 0.00 0.00 0.00 0.00 0.00 0.00 0.00 0.00 0.00 0.00 0.00 0.00 0.00 0.00 0.00 0.00 0.00 0.05 0.11 0.17 0.16 0.25 0.31 0.23 0.13 0.08 0.08 0.10 0.08 0.06 0.07 0.06 0.02 0.01 0.00 0.00
0.02 0.03 0.02 0.01 0.00 0.00 0.01 0.00 0.00 0.00 0.00 0.00 0.00 0.00 0.00 0.00 0.00 0.00 0.00 0.00 0.00 0.00 0.00 0.00 0.00 0.00 0.00 0.00 0.00 0.00 0.02 0.08 0.11 0.14 0.22 0.31 0.25 0.22 0.14 0.06 0.08 0.12 0.13 0.09 0.06 0.05 0.03 0.02 0.01
0.07 0.07 0.03 0.01 0.00 0.00 0.00 0.00 0.00 0.00 0.00 0.00 0.00 0.00 0.00 0.00 0.00 0.00 0.00 0.00 0.00 0.00 0.00 0.00 0.00 0.00 0.00 0.00 0.00 0.00 0.00 0.04 0.11 0.16 0.16 0.26 0.22 0.16 0.20 0.13 0.09 0.12 0.13 0.12 0.12 0.10 0.07 0.04 0.04
0.04 0.04 0.02 0.00 0.00 0.00 0.00 0.00 0.00 0.00 0.00 0.00 0.00 0.00 0.00 0.00 0.00 0.00 0.00 0.00 0.00 0.00 0.00 0.00 0.00 0.00 0.00 0.00 0.00 0.01 0.01 0.02 0.08 0.16 0.14 0.18 0.18 0.15 0.18 0.14 0.18 0.20 0.19 0.16 0.15 0.16 0.13 0.10 0.08
0.03 0.02 0.00 0.00 0.00 0.00 0.00 0.00 0.00 0.00 0.00 0.00 0.00 0.00 0.00 0.00 0.00 0.00 0.00 0.00 0.00 0.00 0.00 0.00 0.00 0.00 0.00 0.00 0.00 0.01 0.01 0.01 0.01 0.04 0.10 0.13 0.14 0.14 0.18 0.17 0.16 0.20 0.22 0.24 0.20 0.17 0.16 0.15 0.14
0.02 0.03 0.01 0.00 0.00 0.00 0.00 0.00 0.00 0.00 0.00 0.00 0.00 0.00 0.01 0.01 0.01 0.01 0.00 0.00 0.00 0.00 0.00 0.00 0.00 0.00 0.00 0.00 0.01 0.02 0.07 0.07 0.07 0.09 0.11 0.15 0.16 0.14 0.18 0.19 0.19 0.25 0.22 0.19 0.17 0.19 0.22 0.22 0.15
0.03 0.02 0.00 0.00 0.00 0.00 0.00 0.01 0.00 0.00 0.00 0.00 0.00 0.00 0.00 0.03 0.04 0.07 0.03 0.01 0.01 0.01 0.00 0.00 0.00 0.00 0.00 0.03 0.04 0.03 0.03 0.07 0.06 0.05 0.07 0.13 0.15 0.17 0.15 0.16 0.17 0.33 0.35 0.24 0.19 0.17 0.20 0.31 0.30
0.02 0.01 0.00 0.00 0.00 0.00 0.00 0.00 0.00 0.00 0.00 0.00 0.00 0.00 0.00 0.04 0.06 0.10 0.07 0.03 0.03 0.03 0.02 0.01 0.00 0.00 0.03 0.07 0.07 0.06 0.06 0.06 0.09 0.09 0.07 0.12 0.27 0.19 0.18 0.24 0.23 0.28 0.50 0.55 0.38 0.23 0.20 0.21 0.22
0.01 0.01 0.00 0.00 0.01 0.02 0.00 0.00 0.00 0.00 0.00 0.00 0.01 0.01 0.01 0.03 0.07 0.08 0.07 0.05 0.05 0.08 0.05 0.07 0.06 0.04 0.08 0.09 0.17 0.13 0.08 0.08 0.16 0.18 0.14 0.11 0.16 0.49 0.30 0.23 0.45 0.53 0.48 0.51 0.59 0.65 0.53 0.30 0.23
0.00 0.03 0.11 0.04 0.04 0.04 0.00 0.00 0.00 0.00 0.00 0.00 0.03 0.10 0.14 0.14 0.14 0.05 0.03 0.11 0.10 0.38 0.15 0.23 0.19 0.40 0.19 0.11 0.16 0.16 0.13 0.13 0.11 0.22 0.27 0.16 0.15 0.18 0.64 0.73 0.34 0.52 0.69 0.61 0.66 0.72 0.83 0.96 0.83
0.00 0.00 0.04 0.04 0.03 0.01 0.00 0.00 0.00 0.00 0.00 0.00 0.04 0.19 0.30 0.21 0.14 0.08 0.14 0.34 0.36 0.65 0.54 0.23 0.17 0.52 0.37 0.23 0.07 0.10 0.27 0.12 0.09 0.11 0.31 0.38 0.31 0.23 0.22 0.64 1.13 0.84 0.83 0.98 0.85 0.82 0.80 0.85 0.85
0.00 0.00 0.00 0.00 0.00 0.00 0.00 0.00 0.00 0.00 0.00 0.00 0.02 0.16 0.17 0.12 0.24 0.38 0.47 0.51 0.44 0.24 0.61 0.38 0.35 0.21 0.21 0.29 0.17 0.22 0.55 0.32 0.11 0.10 0.15 0.18 0.30 0.34 0.37 0.45 0.63 1.16 1.26 1.13 1.61 1.49 1.18 1.27 1.17
0.00 0.00 0.00 0.00 0.00 0.00 0.00 0.00 0.00 0.00 0.00 0.00 0.01 0.02 0.03 0.05 0.06 0.18 0.30 0.43 0.50 0.54 0.97 0.51 0.24 0.32 0.21 0.19 0.26 0.50 0.71 0.66 0.30 0.18 0.16 0.20 0.22 0.27 0.42 0.63 0.67 0.69 0.80 1.08 1.07 1.59 1.72 1.15 1.09
0.00 0.00 0.00 0.00 0.00 0.00 0.00 0.00 0.00 0.00 0.00 0.00 0.00 0.00 0.00 0.01 0.04 0.02 0.02 0.07 0.30 0.56 0.82 0.64 0.35 0.24 0.34 0.23 0.40 0.77 1.45 0.58 0.54 0.31 0.21 0.25 0.32 0.35 0.43 0.42 0.53 0.67 0.77 0.70 0.81 1.01 1.29 1.82 1.59
0.00 0.00 0.00 0.00 0.00 0.00 0.00 0.00 0.00 0.00 0.00 0.00 0.00 0.00 0.00 0.00 0.00 0.00 0.00 0.02 0.13 0.33 0.48 0.92 0.97 0.61 0.96 0.85 1.05 0.87 0.88 0.82 0.46 0.56 0.57 0.41 0.36 0.26 0.35 0.49 0.52 0.63 0.61 0.78 0.89 0.94 1.11 1.04 1.21